Weather History for KLNR - December, 2012

Change the Weather History Date:

Wednesday, December 12, 2012

  Actual Average Record
Temperature  
Mean Temperature 32 °F -  
Max Temperature 42 °F 33 °F 48 °F (1998)
Min Temperature 21 °F 18 °F -18 °F (2000)
Degree Days  
Heating Degree Days 34    
Moisture  
Dew Point 23 °F    
Average Humidity 68    
Maximum Humidity 92    
Minimum Humidity 50    
Precipitation  
Precipitation 0.00 in - - ()
Sea Level Pressure  
Sea Level Pressure 30.13 in    
Wind  
Wind Speed 3 mph (South)    
Max Wind Speed 16 mph    
Max Gust Speed 25 mph    
Visibility 9 miles    
Events      
Averages and records for this station are not official NWS values.
T = Trace of Precipitation, MM = Missing Value Source: NWS Daily Summary

Daily Weather History Graph

Daily Weather History Graph

Search for Another Location

Airport or City:

Trip Planner

Search our weather history database for the weather conditions in past years. The results will help you decide how hot, cold, wet, or windy it might be!

Date:

Astronomy

Dec. 12, 2012 Rise Set
Actual Time 7:23 AM CST 4:25 PM CST
Civil Twilight 6:51 AM CST 4:57 PM CST
Nautical Twilight 6:15 AM CST 5:33 PM CST
Astronomical Twilight 5:40 AM CST 6:08 PM CST
Moon 6:27 AM CST (12/12) 4:03 PM CST (12/12)
Length of Visible Light 10h 06m
Length of Day
9h 01m
Waning Crescent, 1% of the Moon is Illuminated
Dec 12
Waning Crescent
Dec 13
New
Dec 19
First Quarter
Dec 28
Full
Jan 4
Last Quarter

Hourly Weather History & Observations

Time (CST) Temp. Windchill Dew Point Humidity Pressure Visibility Wind Dir Wind Speed Gust Speed Precip Events Conditions
12:56 AM 28.0 °F - 24.1 °F 85% 30.11 in 7.0 mi Calm Calm - N/A   Overcast
1:56 AM 28.9 °F - 24.1 °F 82% 30.11 in 9.0 mi Calm Calm - N/A   Overcast
2:56 AM 28.0 °F - 24.1 °F 85% 30.11 in 8.0 mi Calm Calm - N/A   Mostly Cloudy
3:56 AM 24.1 °F 17.0 °F 21.0 °F 88% 30.11 in 7.0 mi ESE 5.8 mph - N/A   Clear
4:56 AM 24.1 °F - 21.0 °F 88% 30.12 in 7.0 mi Calm Calm - N/A   Clear
5:56 AM 21.9 °F - 19.9 °F 92% 30.14 in 7.0 mi Calm Calm - N/A   Clear
6:56 AM 21.0 °F 16.2 °F 17.1 °F 85% 30.15 in 7.0 mi SE 3.5 mph - N/A   Clear
7:56 AM 24.1 °F - 21.0 °F 88% 30.16 in 8.0 mi Calm Calm - N/A   Clear
8:56 AM 27.0 °F 23.0 °F 21.0 °F 78% 30.17 in 10.0 mi ESE 3.5 mph - N/A   Clear
9:56 AM 30.0 °F 25.2 °F 23.0 °F 75% 30.17 in 10.0 mi ESE 4.6 mph - N/A   Clear
10:56 AM 34.0 °F - 23.0 °F 64% 30.17 in 10.0 mi Calm Calm - N/A   Clear
11:56 AM 37.9 °F 35.5 °F 23.0 °F 55% 30.15 in 10.0 mi SSW 3.5 mph - N/A   Clear
12:56 PM 39.9 °F 32.1 °F 24.1 °F 53% 30.13 in 10.0 mi South 13.8 mph 19.6 mph N/A   Clear
1:56 PM 41.0 °F 32.8 °F 25.0 °F 53% 30.10 in 10.0 mi South 16.1 mph 20.7 mph N/A   Clear
3:56 PM 42.1 °F 36.1 °F 25.0 °F 51% 30.10 in 10.0 mi South 10.4 mph - N/A   Clear
4:56 PM 41.0 °F 35.8 °F 25.0 °F 53% 30.09 in 10.0 mi SSE 8.1 mph - N/A   Clear
5:56 PM 41.0 °F 35.2 °F 25.0 °F 53% 30.09 in 10.0 mi South 9.2 mph - N/A   Clear
7:56 PM 39.9 °F 33.4 °F 25.0 °F 55% 30.12 in 10.0 mi South 10.4 mph 25.3 mph N/A   Clear
8:56 PM 39.0 °F 32.3 °F 24.1 °F 55% 30.12 in 10.0 mi South 10.4 mph - N/A   Clear
9:56 PM 39.0 °F 34.8 °F 23.0 °F 53% 30.13 in 10.0 mi SSW 5.8 mph - N/A   Clear
10:56 PM 39.0 °F 35.7 °F 21.9 °F 50% 30.14 in 10.0 mi SSW 4.6 mph - N/A   Clear
11:56 PM 37.0 °F 32.4 °F 21.9 °F 54% 30.15 in 10.0 mi SSW 5.8 mph - N/A   Clear